Location: Artiguedieu
(43.5000°N, 0.5454°E)
Time: 13:05:37
(UTC+00:00)

ATLAS 5 CENTAUR R/B - Pass Details

Date: 06 December 2020
Orbit: 520 x 1138 km, 63.4° (Epoch: 25 January)

Event Time Altitude Azimuth Distance (km) Brightness Sun altitude
Exits shadow 04:17:18 26° 80° (E) 1,144 3.5 -31.6°
Drops below altitude 10° 04:19:47 10° 53° (NE) 1,946 4.7 -31.2°
Sets 04:22:21 0° 44° (NE) 2,942 5.6 -30.7°
